This demonstration page uses our WeatherBlox Daily Observations layout. Learn more.

39.92423, -83.80882

Hourly Observations for May 3, 2015

Temp ( °F °C ) Dew Point ( °F °C ) Humidity (%) Winds ( mph kmh ) Pressure ( in mb ) Visibility ( mi km ) Precip ( " mm )
12:56 am 00:56 Clear 51 10.5 45 7.2 80 80 SSE 3 6 30.07 1018 7 11.26538 0 0
1:56 am 01:56 Clear 49 9.4 44 6.6 83 83 S 5 7 30.07 1018 7 11.26538 0 0
2:56 am 02:56 Clear 49 9.4 44 6.6 83 83 SSW 3 6 30.07 1018 7 11.26538 0 0
3:56 am 03:56 Clear 50 10 44 6.6 80 80 SSW 3 6 30.07 1018 7 11.26538 0 0
4:56 am 04:56 Clear 54 12.2 45 7.2 72 72 SSW 6 9 30.08 1019 7 11.26538 0 0
5:56 am 05:56 Clear 52 11.1 45 7.2 77 77 SSW 5 7 30.09 1019 7 11.26538 0 0
6:56 am 06:56 Hazy 49 9.4 44 6.6 83 83 SSW 3 6 30.11 1020 5 8.0467 0 0
7:56 am 07:56 Hazy 55 12.7 47 8.3 75 75 SSW 5 7 30.12 1020 6 9.65604 0 0
8:56 am 08:56 Hazy 62 16.6 48 8.8 60 60 SW 5 7 30.13 1020 6 9.65604 0 0
9:56 am 09:56 Hazy 67 19.4 49 9.4 53 53 SSW 3 6 30.13 1020 6 9.65604 0 0
10:56 am 10:56 Hazy 71 21.6 46 7.7 41 41 SW 8 13 30.13 1020 6 9.65604 0 0
11:56 am 11:56 Hazy 73 22.7 46 7.7 38 38 SW 8 13 30.14 1021 6 9.65604 0 0
12:56 pm 12:56 Partly Cloudy 74 23.3 46 7.7 37 37 S 15 24 30.12 1020 7 11.26538 0 0
1:56 pm 13:56 Hazy 76 24.4 46 7.7 34 34 SSW 10 17 30.11 1020 6 9.65604 0 0
2:56 pm 14:56 Hazy 77 25 46 7.7 33 33 SSW 12 19 30.1 1019 6 9.65604 0 0
3:56 pm 15:56 Hazy 78 25.5 46 7.7 32 32 SW 16 26 30.09 1019 6 9.65604 0 0
4:56 pm 16:56 Hazy 77 25 45 7.2 32 32 SW 8 13 30.07 1018 6 9.65604 0 0
5:56 pm 17:56 Hazy 77 25 46 7.7 33 33 SW 15 24 30.07 1018 6 9.65604 0 0
6:56 pm 18:56 Hazy 76 24.4 46 7.7 34 34 SW 12 19 30.07 1018 6 9.65604 0 0
7:56 pm 19:56 Hazy 72 22.2 47 8.3 41 41 SW 8 13 30.08 1019 6 9.65604 0 0
8:56 pm 20:56 Clear 68 20 46 7.7 45 45 S 5 7 30.08 1019 8 12.87472 0 0
9:56 pm 21:56 Clear 66 18.8 46 7.7 49 49 SSE 5 7 30.1 1019 7 11.26538 0 0
10:56 pm 22:56 Clear 66 18.8 47 8.3 51 51 S 5 7 30.1 1019 7 11.26538 0 0
11:56 pm 23:56 Clear 64 17.7 47 8.3 54 54 S 7 11 30.09 1019 7 11.26538 0 0

Powered by AerisWeather